Weather History for KAXA - December, 2012

Change the Weather History Date:

Sunday, December 23, 2012

  Actual Average (KEST) Record (KEST)
Temperature  
Mean Temperature 14 °F 17 °F  
Max Temperature 17 °F 26 °F - ()
Min Temperature 10 °F 8 °F - ()
Degree Days  
Heating Degree Days 52 48  
Month to date heating degree days 1035  
Since 1 July heating degree days 2754  
Cooling Degree Days 0 0  
Month to date cooling degree days 0  
Year to date cooling degree days 593  
Moisture  
Dew Point 12 °F    
Average Humidity 89    
Maximum Humidity 93    
Minimum Humidity 85    
Precipitation  
Precipitation 0.00 in 0.01 in - ()
Month to date precipitation 0.60  
Sea Level Pressure  
Sea Level Pressure 30.00 in    
Wind  
Wind Speed 10 mph (NNE)    
Max Wind Speed 18 mph    
Max Gust Speed 21 mph    
Visibility 7 miles    
Events Rain , Snow    
T = Trace of Precipitation, MM = Missing Value Source: NWS Daily Summary

Daily Weather History Graph

Daily Weather History Graph

Search for Another Location

Airport or City:

Trip Planner

Search our weather history database for the weather conditions in past years. The results will help you decide how hot, cold, wet, or windy it might be!

Date:

Astronomy

Dec. 23, 2012 Rise Set
Actual Time 7:46 AM CST 4:46 PM CST
Civil Twilight 7:14 AM CST 5:18 PM CST
Nautical Twilight 6:38 AM CST 5:54 PM CST
Astronomical Twilight 6:03 AM CST 6:29 PM CST
Moon 1:40 PM CST (12/23) 3:26 AM CST (12/23)
Length of Visible Light 10h 04m
Length of Day
8h 59m
Waxing Gibbous, 82% of the Moon is Illuminated
Dec 23
Waxing Gibbous
Dec 28
Full
Jan 4
Last Quarter
Jan 11
New
Jan 18
First Quarter

Hourly Weather History & Observations

Time (CST) Temp. Windchill Dew Point Humidity Pressure Visibility Wind Dir Wind Speed Gust Speed Precip Events Conditions
12:15 AM 10.4 °F -1.5 °F 6.8 °F 85% 29.99 in 10.0 mi North 8.1 mph 15.0 mph N/A   Clear
12:35 AM 10.4 °F -3.3 °F 6.8 °F 85% 30.00 in 10.0 mi North 10.4 mph - N/A   Clear
12:55 AM 10.4 °F -4.8 °F 6.8 °F 85% 29.99 in 10.0 mi North 12.7 mph - N/A   Clear
1:15 AM 10.4 °F -2.4 °F 6.8 °F 85% 29.98 in 10.0 mi North 9.2 mph 16.1 mph N/A   Clear
1:35 AM 10.4 °F -3.3 °F 6.8 °F 85% 29.98 in 9.0 mi North 10.4 mph - N/A   Clear
1:55 AM 10.4 °F -1.5 °F 6.8 °F 85% 29.98 in 10.0 mi North 8.1 mph - N/A   Clear
2:15 AM 10.4 °F -3.3 °F 6.8 °F 85% 29.98 in 10.0 mi North 10.4 mph - N/A   Scattered Clouds
2:35 AM 10.4 °F -4.1 °F 6.8 °F 85% 29.99 in 10.0 mi North 11.5 mph - N/A   Overcast
2:55 AM 10.4 °F -3.3 °F 6.8 °F 85% 30.00 in 9.0 mi North 10.4 mph - N/A   Overcast
3:15 AM 10.4 °F -4.1 °F 6.8 °F 85% 30.00 in 8.0 mi North 11.5 mph - N/A   Overcast
3:35 AM 10.4 °F -4.1 °F 6.8 °F 85% 30.00 in 8.0 mi North 11.5 mph - N/A   Overcast
3:55 AM 10.4 °F -4.8 °F 6.8 °F 85% 30.01 in 8.0 mi North 12.7 mph - N/A   Overcast
4:15 AM 10.4 °F -4.1 °F 8.6 °F 92% 30.01 in 7.0 mi North 11.5 mph 18.4 mph N/A   Overcast
4:35 AM 10.4 °F -5.4 °F 8.6 °F 92% 30.01 in 4.0 mi North 13.8 mph 20.7 mph N/A Snow Light Snow
4:55 AM 12.2 °F -5.3 °F 8.6 °F 85% 30.00 in 4.0 mi NNE 18.4 mph - N/A   Light Freezing Rain
5:15 AM 12.2 °F -4.3 °F 8.6 °F 85% 30.00 in 5.0 mi NNE 16.1 mph - N/A   Light Freezing Rain
5:35 AM 12.2 °F -1.8 °F 10.4 °F 92% 30.03 in 5.0 mi North 11.5 mph 17.3 mph N/A   Overcast
6:15 AM 12.2 °F -4.3 °F 10.4 °F 92% 30.01 in 3.0 mi NNE 16.1 mph - N/A   Light Freezing Rain
6:35 AM 14.0 °F -1.4 °F 10.4 °F 86% 30.02 in 4.0 mi NNE 15.0 mph - N/A Snow Light Snow
6:55 AM 14.0 °F -1.4 °F 12.2 °F 93% 30.02 in 4.0 mi NNE 15.0 mph - N/A Rain Light Freezing Rain
7:15 AM 14.0 °F -2.5 °F 12.2 °F 93% 30.02 in 3.0 mi NNE 17.3 mph - N/A Rain Light Freezing Rain
7:35 AM 14.0 °F -0.2 °F 12.2 °F 93% 30.03 in 2.0 mi NNE 12.7 mph 19.6 mph N/A   Overcast
7:55 AM 15.8 °F 0.3 °F 14.0 °F 93% 30.02 in 1.5 mi NNE 16.1 mph - N/A   Overcast
8:15 AM 15.8 °F 0.9 °F 14.0 °F 93% 30.03 in 1.0 mi NNE 15.0 mph - N/A   Overcast
8:35 AM 15.8 °F 1.4 °F 14.0 °F 93% 30.03 in 1.2 mi NNE 13.8 mph - N/A   Overcast
8:55 AM 15.8 °F 0.9 °F 14.0 °F 93% 30.04 in 1.8 mi NNE 15.0 mph - N/A Snow Light Snow
9:15 AM 15.8 °F 1.4 °F 14.0 °F 93% 30.04 in 2.0 mi NNE 13.8 mph - N/A Snow Light Snow
9:35 AM 15.8 °F 2.1 °F 14.0 °F 93% 30.04 in 1.8 mi NE 12.7 mph 19.6 mph N/A   Overcast
9:55 AM 17.6 °F 4.3 °F 15.8 °F 93% 30.04 in 2.0 mi NE 12.7 mph 18.4 mph N/A   Overcast
10:15 AM 17.6 °F 3.2 °F 15.8 °F 93% 30.03 in 2.0 mi NE 15.0 mph - N/A Snow Light Snow
10:35 AM 17.6 °F 3.7 °F 15.8 °F 93% 30.03 in 2.5 mi NE 13.8 mph - N/A   Overcast
11:15 AM 17.6 °F 5.0 °F 15.8 °F 93% 30.02 in 2.5 mi ENE 11.5 mph - N/A   Overcast
11:35 AM 17.6 °F 6.4 °F 15.8 °F 93% 30.02 in 4.0 mi ENE 9.2 mph 16.1 mph N/A Snow Light Snow
11:55 AM 17.6 °F 4.3 °F 15.8 °F 93% 30.01 in 4.0 mi NE 12.7 mph - N/A   Overcast
12:15 PM 17.6 °F 5.7 °F 15.8 °F 93% 30.01 in 5.0 mi NE 10.4 mph - N/A   Overcast
12:35 PM 17.6 °F 6.4 °F 15.8 °F 93% 29.99 in 5.0 mi NE 9.2 mph - N/A   Overcast
12:55 PM 17.6 °F 6.4 °F 15.8 °F 93% 29.99 in 5.0 mi ENE 9.2 mph - N/A   Overcast
1:15 PM 17.6 °F 10.7 °F 15.8 °F 93% 30.00 in 7.0 mi ENE 4.6 mph - N/A   Overcast
1:35 PM 17.6 °F - 15.8 °F 93% 30.01 in 7.0 mi Calm Calm - N/A   Overcast
1:55 PM 17.6 °F - 15.8 °F 93% 30.01 in 7.0 mi Calm Calm - N/A   Overcast
2:15 PM 17.6 °F 12.3 °F 15.8 °F 93% 30.01 in 7.0 mi Variable 3.5 mph - N/A   Overcast
2:35 PM 17.6 °F 9.3 °F 15.8 °F 93% 30.00 in 7.0 mi NE 5.8 mph - N/A   Overcast
2:55 PM 17.6 °F 8.2 °F 15.8 °F 93% 30.00 in 7.0 mi East 6.9 mph - N/A   Overcast
3:15 PM 17.6 °F 8.2 °F 15.8 °F 93% 30.00 in 8.0 mi East 6.9 mph - N/A   Overcast
3:35 PM 17.6 °F 9.3 °F 15.8 °F 93% 30.00 in 8.0 mi NE 5.8 mph - N/A   Overcast
3:55 PM 17.6 °F 9.3 °F 15.8 °F 93% 30.00 in 7.0 mi ENE 5.8 mph - N/A   Overcast
4:15 PM 17.6 °F 8.2 °F 15.8 °F 93% 30.00 in 7.0 mi ENE 6.9 mph - N/A   Overcast
4:35 PM 17.6 °F 8.2 °F 15.8 °F 93% 30.01 in 7.0 mi NE 6.9 mph - N/A   Overcast
4:55 PM 17.6 °F 9.3 °F 15.8 °F 93% 30.01 in 7.0 mi ENE 5.8 mph - N/A   Overcast
5:15 PM 17.6 °F 12.3 °F 15.8 °F 93% 30.01 in 10.0 mi ENE 3.5 mph - N/A   Overcast
5:35 PM 17.6 °F 10.7 °F 15.8 °F 93% 30.01 in 9.0 mi NE 4.6 mph - N/A   Overcast
5:55 PM 17.6 °F 7.3 °F 14.0 °F 86% 29.99 in 9.0 mi NE 8.1 mph - N/A   Overcast
6:15 PM 17.6 °F 6.4 °F 14.0 °F 86% 29.98 in 10.0 mi NE 9.2 mph - N/A   Overcast
6:35 PM 17.6 °F 7.3 °F 14.0 °F 86% 29.98 in 8.0 mi ENE 8.1 mph - N/A   Overcast
6:55 PM 17.6 °F 9.3 °F 14.0 °F 86% 29.99 in 8.0 mi North 5.8 mph - N/A   Overcast
7:15 PM 15.8 °F 6.1 °F 14.0 °F 93% 29.99 in 9.0 mi North 6.9 mph - N/A   Overcast
7:35 PM 15.8 °F 5.1 °F 12.2 °F 86% 29.99 in - North 8.1 mph - N/A   Overcast
7:55 PM 15.8 °F 3.4 °F 12.2 °F 86% 29.99 in 10.0 mi NNE 10.4 mph - N/A   Overcast
8:15 PM 15.8 °F 5.1 °F 12.2 °F 86% 29.98 in 10.0 mi North 8.1 mph - N/A   Overcast
8:55 PM 15.8 °F 3.4 °F 12.2 °F 86% 29.95 in 10.0 mi ENE 10.4 mph - N/A Snow Light Snow
9:15 PM 15.8 °F 4.2 °F 12.2 °F 86% 29.95 in 10.0 mi East 9.2 mph - N/A   Mostly Cloudy
9:35 PM 15.8 °F 10.2 °F 12.2 °F 86% 29.96 in 10.0 mi ENE 3.5 mph - N/A   Overcast
9:55 PM 15.8 °F - 12.2 °F 86% 29.97 in 10.0 mi Calm Calm - N/A   Overcast
10:15 PM 15.8 °F - 12.2 °F 86% 29.98 in 10.0 mi Calm Calm - N/A   Overcast
10:35 PM 15.8 °F 7.2 °F 12.2 °F 86% 29.98 in 10.0 mi NW 5.8 mph - N/A   Overcast
10:55 PM 15.8 °F 7.2 °F 12.2 °F 86% 29.99 in 10.0 mi NW 5.8 mph - N/A   Overcast
11:15 PM 15.8 °F 7.2 °F 12.2 °F 86% 29.97 in 10.0 mi NNW 5.8 mph - N/A   Overcast
11:35 PM 15.8 °F 8.6 °F 12.2 °F 86% 29.97 in 10.0 mi NNW 4.6 mph - N/A   Overcast
11:55 PM 15.8 °F 8.6 °F 12.2 °F 86% 29.97 in 10.0 mi NNW 4.6 mph - N/A   Overcast